OBJECT E

Satellite information

Favourite Embed

Satellite Type and Status

UNKNOWNIN ORBIT

Key statistics

Satellite OBJECT E at a glance.

Uptime

772

Days in orbit

Revolutions

≈ 15.3

Per day

Orbit

SSO

Sun Synchronous Orbit

Inclination

97.5

Latest

Satellite identification and parameters

Extended collection of information and parameters for OBJECT E.

Object identification

Identified? True

Debris? False

Object name: OBJECT E

International designator: 2023-072E

Object number (NORAD): 56747

Object ID (CCSDS): 56747

Country: SOUTH KOREA (SKOR)

Current information (Y/N): Y

RCS size: SMALL

Orbital parameters

Period: 94.035 minutes

Inclination: 97.5362 deg

SMA: 6849.925 km

Apoapsis: 476.189 km

Periapsis: 467.391 km

RAAN: 20.8765 deg

Eccentricy: 0.0006422

Argument of periapsis: 140.8112 deg

Mean anomaly: 219.3595 deg

Mean motion: 15.31348574 rev/day

Mean motion (dot): 0.00011948 rev/day2

B* drag term: 0.00039682 1/REarth

Two-line elements (TLE)

Creation date: July 4, 2025, 10:16 p.m.

Reference frame: TEME

Reference center: EARTH

Epoch: July 4, 2025, 8:01 p.m. UTC

TLE line 0: 0 OBJECT E

TLE line 1: 1 56747U 23072E 25185.83427291 .00011948 00000-0 39682-3 0 9994

TLE line 2: 2 56747 97.5362 20.8765 0006422 140.8112 219.3595 15.31348574116959

Live tracking on map

Real-time ground track for satellite OBJECT E.

In-orbit conjunctions

There are no conjunctions computed for OBJECT E, at the moment. Check back to stay up to date, as we update our databases every day.

Go to all conjunctions

Associated space launch

Third flight of the KSLV-II "Nuri" launch vehicle, carrying NEXTSat-2 as well as SNIPE A through D.

OBJECT E was lifted into orbit during the mission ‘Nuri | NEXTSat-2 & SNIPE’, on board a Nuri space rocket.

The launch took place on May 25, 2023, 9:24 a.m. from LC-2.

For more information about the launch, click the button.

Launch to space Nuri | NEXTSat-2 & SNIPE
Nuri | NEXTSat-2 & SNIPE

Agency: N/A

Status: Launch Successful

Launch date: May 25, 2023, 9:24 a.m. UTC

Rocket: Nuri

Launch pad: LC-2

Location: Naro Space Center, South Korea

...

Latest news about this satellite

News about space launch
South Korea’s KSLV-2 rocket launches seven satellites, one unaccounted for

South Korea’s KSLV-2 rocket put seven satellites, including one equipped with synthetic aperture radar, into sun-synchronous orbit May 25, although an eighth cubesat is believed to have not deployed properly.

News about space launch
South Korea’s KSLV-2 rocket set to launch May 24

South Korea’s homegrown KSLV-2 rocket is slated to launch May 24, carrying a 180-kilogram technology demonstration satellite and seven cubesats.


Newsletter sign-up

Weekly statistics, charts and insights to help you stay on top of the space industry.